Regional Weather Roundup
Issued by NWS

Home | Current Version | Previous Version | Text Only | Print | Product List | Glossary Off
Versions: 1 2 3 4 5 6 7 8 9 10 11 12 13 14 15 16 17 18 19 20 21 22 23 24 25 26 27 28 29 30 31 32 33 34 35 36 37 38 39 40 41 42 43 44 45 46 47 48 49 50

000
ASUS43 KMPX 221110
RWRMN
WEATHER ROUNDUP FOR MINNESOTA
NATIONAL WEATHER SERVICE TWIN CITIES/CHANHASSEN MN
600 AM CDT SAT JUL 22 2017


NOTE: "FAIR" INDICATES FEW OR NO CLOUDS BELOW 12,000 FEET WITH NO
SIGNIFICANT WEATHER AND/OR OBSTRUCTIONS TO VISIBILITY. N/A MEANS
CURRENT SKY AND/OR WEATHER CONDITIONS ARE NOT AVAILABLE.

MNZ060>063-068>070-221200-
   Twin Cities Metro

CITY           SKY/WX    TMP DP  RH WIND       PRES   REMARKS
TWIN CITIES    CLOUDY    71  65  81 SE6       29.80R
ST PAUL        CLOUDY    69  68  96 SE6       29.80S
CRYSTAL        CLOUDY    69  63  81 CALM      29.80R
BLAINE         MOCLDY    68  66  94 CALM      29.81R
LAKEVILLE      MOCLDY    66  66 100 NE5       29.80R
EDEN PRAIRIE   CLOUDY    70  66  87 CALM      29.80R
SOUTH ST PAUL  MOCLDY    70  67  91 SE5       29.80S
LAKE ELMO      CLOUDY    68  66  94 NE3       29.83R
$$
MNZ001>005-007-008-013>017-022>024-027-028-221200-
   Northwest Minnesota

CITY           SKY/WX    TMP DP  RH WIND       PRES   REMARKS
BEMIDJI        CLOUDY    66  60  80 N10       29.78R
HALLOCK        CLEAR     61  59  94 S6        29.74F
ROSEAU         CLEAR     61  55  82 SE3       29.74F
WARROAD        PTCLDY    61  55  82 S5        29.76R
THIEF RVR FALL PTCLDY    63  62  97 S7        29.79S FOG
CROOKSTON      FOG       66  66 100 SW5       29.79R VSB 1/4
FOSSTON        CLOUDY    61  59  94 N3        29.80S
DETROIT LAKES  CLOUDY    64  63  94 S5        29.84F
MOORHEAD       CLOUDY    66  63  88 S7        29.82R
PARK RAPIDS    LGT RAIN  67  64  90 SW9       29.85R
MAHNOMEN       FAIR      64  62  94 S8        29.79F
$$
MNZ006-009>011-018-025>026-221200-
   North Central Minnesota

CITY           SKY/WX    TMP DP  RH WIND       PRES   REMARKS
BAUDETTE       MOCLDY    59  58  96 SE8       29.77F
FLAG ISLAND    CLOUDY    66  61  82 SE8       29.75R
INTL FALLS     MOCLDY    58  56  93 VRB3      29.82R
BIG FORK       CLOUDY    63  61  94 E5        29.81F FOG
LONGVILLE      CLOUDY    63  63 100 CALM      29.83S FOG
GRAND RAPIDS   CLOUDY    64  63  96 CALM      29.86R
CRANE LAKE     CLOUDY    52  52 100 CALM      29.83F FOG
ORR            CLOUDY    55  54  94 CALM      29.82S FOG
COOK           MOCLDY    54  54 100 CALM      29.84S
WALKER         RAIN      63  62  98 SW7       29.79F
$$
MNZ012-019>021-037-221200-
   Northeast Minnesota

CITY           SKY/WX    TMP DP  RH WIND       PRES   REMARKS
DULUTH         MOCLDY    58  58 100 CALM      29.84S
ELY            PTCLDY    52  52 100 CALM      29.83F
HIBBING        FOG       59  59 100 CALM      29.85R VSB 1/4
EVELETH        CLOUDY    58  54  88 CALM      29.86S
DULUTH HARBOR  CLOUDY    61  57  88 E3        29.84R
TWO HARBORS    CLEAR     57  54  88 N3        29.82R
SILVER BAY     CLEAR     59  55  88 N3        29.82R
GRAND MARAIS     N/A     59  53  80 NE7       29.81R
G MARAIS ARPRT CLEAR     57  48  72 N8        29.85S
$$
MNZ029>031-032-039>041-046>048-054>057-064-221200-
   West Central Minnesota

CITY           SKY/WX    TMP DP  RH WIND       PRES   REMARKS
FERGUS FALLS   CLOUDY    64  64 100 E7        29.86F
WHEATON        CLOUDY    66  64  94 NE9       29.87F
MORRIS         MOCLDY    70  66  88 N9        29.87R
ALEXANDRIA     CLOUDY    68  64  87 N15       29.89R
ELBOW LAKE     LGT RAIN  64  64  99 NE10G20   29.89R
WADENA         TSTM      64  64 100 N6        29.89R
GLENWOOD       MOCLDY    66  64  94 SW6       29.85R
APPLETON       CLEAR     68  64  88 N6        29.84R
BENSON         PTCLDY    66  64  94 N5        29.86R FOG
ORTONVILLE     CLEAR     70  64  83 N7        29.85R
MADISON        CLEAR     72  72 100 N6        29.83R
WILLMAR        FAIR      66  66 100 N3        29.85R
$$
MNZ033>034-036-042>043-049>051-058-059-221200-
   Central Minnesota

CITY           SKY/WX    TMP DP  RH WIND       PRES   REMARKS
ST CLOUD       PTCLDY    65  65 100 E6        29.82R
SAUK CENTRE    FAIR      67  67  97 W5        29.84R
PAYNESVILLE    CLEAR     66  65  99 SW5       29.84R
AITKIN         FOG       63  61  94 SW3       29.85R VSB 1/2
PINE RIVER     TSTM      63  63 100 SW6       29.90R
BRAINERD       LGT RAIN  64  64 100 SE6       29.86F
STAPLES        CLOUDY    64  64 100 NW10      29.91R
LONG PRAIRIE   MOCLDY    68  66  94 W17       29.88R
LITTLE FALLS   CLOUDY    64  63  94 CALM      29.84R
LITCHFIELD     PTCLDY    70  68  94 CALM      29.82R
BUFFALO        MOCLDY    69  65  85 CALM      29.83R
MAPLE LAKE     MOCLDY    68  66  93 CALM      29.83R
HUTCHINSON     PTCLDY    68  67  97 CALM      29.82R
$$
MNZ037-044-045-052-053-221200-
   East Central Minnesota

CITY           SKY/WX    TMP DP  RH WIND       PRES   REMARKS
PRINCETON      PTCLDY    64  63  94 CALM      29.83R FOG
MORA           CLOUDY    61  61 100 CALM      29.85R FOG
CAMBRIDGE      PTCLDY    66  63  88 CALM      29.82R
RUSH CITY      MOCLDY    62  61  96 N6        29.83R
MOOSE LAKE     FOG       61  59  94 CALM      29.83F VSB 1/4
HINCKLEY       FAIR      61  61 100 CALM      29.84S
CLOQUET        FOG       61  59  94 CALM      29.85R VSB<1/4
MCGREGOR       CLOUDY    63  63 100 CALM      29.86R
$$
MNZ071>073-080-081-089-090-097-098-221200-
   Southwest Minnesota

CITY           SKY/WX    TMP DP  RH WIND       PRES   REMARKS
MONTEVIDEO     CLEAR     66  66 100 N3        29.83R
GRANITE FALLS  CLEAR     69  67  96 NW7       29.84R
CANBY          CLEAR     68  67  95 CALM      29.84R
MARSHALL       CLEAR     68  67  96 N7        29.82R
REDWOOD FALLS  CLOUDY    68  66  93 NW3       29.78R
OLIVIA         CLEAR     68  64  88 N7        29.80R
PIPESTONE      CLEAR     68  66  94 W8        29.83R
WINDOM         CLOUDY    70  68  94 SE7       29.79R
WORTHINGTON    CLOUDY    70  69  97 CALM      29.80R FOG
JACKSON        CLOUDY    70  70 100 CALM      29.79F FOG
SLAYTON        CLOUDY    68  64  88 S5        29.80S
$$
MNZ065>067-074>077-082>085-091>093-221200-
   South Central Minnesota

CITY           SKY/WX    TMP DP  RH WIND       PRES   REMARKS
MANKATO        MOCLDY    68  67  96 SE3       29.77F
NEW ULM        CLOUDY    68  66  94 S5        29.78R
ST JAMES       CLOUDY    70  68  94 SE12      29.78R
FAIRMONT       CLOUDY    70  70 100 S6        29.78F FOG
GLENCOE        PTCLDY    68  69 100 CALM      29.80R
FARIBAULT      CLOUDY    70  68  94 S3        29.79S
OWATONNA       CLOUDY    70  68  94 SE3       29.77F FOG
WASECA         MOCLDY    68  64  88 CALM      29.77F
ALBERT LEA     FOG       70  68  94 SE6       29.77F VSB 3/4
$$
MNZ078>079-086>088-094>096-221200-
   Southeast Minnesota

CITY           SKY/WX    TMP DP  RH WIND       PRES   REMARKS
ROCHESTER      FOG       68  68 100 S3        29.79F VSB 1/4
RED WING       CLOUDY    72  66  83 CALM      29.80R
STANTON        CLOUDY    69  67  92 CALM      29.78S
DODGE CENTER   FOG       68  66  94 CALM      29.80F VSB 1/4
WINONA         CLOUDY    70  68  94 CALM      29.77F
AUSTIN         CLOUDY    70  66  88 CALM      29.79F FOG
PRESTON        FOG       68  67  96 CALM      29.80F VSB 1/4
$$
ABBREVIATIONS USED IN REMARKS
   TC - TEMPERATURES IN CELSIUS
  WCI - WIND CHILL INDEX
   HX - HEAT INDEX
  VSB - VISIBILITY
$$



USA.gov is the U.S. government's official web portal to all federal, state and local government web resources and services.